Simultaneous Nadir Overpasses (SNOs) Predictions

Prediction of SNOs between GOES-15 and NPP Satellite Orbit:

Table of predicted SNOs for the next 14.0 days since TLE Epoch: 7/10/2022
Index Date Time (GOES-15) GOES-15 Lat,Lon NPP Lat,Lon Distance(km) Time Diff (sec)
1 07/10/2022 09:55:48 -0.18,-128.45 -0.40,-127.34 125.77 80
2 07/11/2022 22:15:07 0.22,-128.42 -0.70,-132.67 483.24 80
3 07/12/2022 21:59:03 0.20,-128.41 0.26,-128.13 31.79 80
4 07/15/2022 09:59:28 -0.22,-128.39 -0.11,-128.88 56.51 80
5 07/16/2022 09:43:24 -0.20,-128.37 -1.08,-124.34 458.14 80
6 07/17/2022 22:02:42 0.24,-128.34 -0.08,-129.66 151.45 80
7 07/18/2022 21:46:39 0.22,-128.32 0.95,-125.14 363.56 80
8 07/20/2022 10:05:48 -0.25,-128.31 0.22,-130.41 239.16 80
9 07/21/2022 09:49:45 -0.24,-128.30 -0.81,-125.89 275.28 80
10 07/22/2022 22:09:02 0.28,-128.25 -0.40,-131.19 335.61 80
11 07/23/2022 21:52:58 0.27,-128.23 0.63,-126.67 178.73 80
